Regional Weather Roundup
Issued by NWS Columbia, SC

Home | Current Version | Previous Version | Text Only | Print | Product List | Glossary On
Versions: 1 2 3 4 5 6 7 8 9 10 11 12 13 14 15 16 17 18 19 20 21 22 23 24 25 26 27 28 29 30 31 32 33 34 35 36 37 38 39 40 41 42 43 44 45 46 47 48 49 50
000
ASUS42 KCAE 020810
RWRCAE
SOUTH CAROLINA REGIONAL WEATHER ROUNDUP
NATIONAL WEATHER SERVICE COLUMBIA SC
400 AM EDT WED SEP 02 2015

Note: "fair" indicates few or no clouds below 12,000 feet with no
significant weather and/or obstructions to visibility.

SCZ003-006-007-009-010-020900-
UPSTATE

CITY           SKY/WX    TMP DP  RH WIND       PRES   REMARKS
ANDERSON       PTCLDY    70  67  90 CALM      30.10S
CLEMSON        PTCLDY    73  69  87 CALM      30.12S
GREENVILLE     CLEAR     73  67  81 CALM      30.11F
GREENWOOD      PTCLDY    70  68  93 CALM      30.10F
GREER          PTCLDY    72  68  87 CALM      30.09S
ROCK HILL      CLEAR     70  67  90 CALM      30.09S
$$

SCZ027-028-031-032-036-020900-
CENTRAL

CITY           SKY/WX    TMP DP  RH WIND       PRES   REMARKS
COLUMBIA APT   PTCLDY    73  68  84 W3        30.07F
COLUMBIA OWENS CLEAR     74  70  87 CALM      30.08F
MCENTIRE ANGB  CLEAR     70  69  96 CALM      30.07F
ORANGEBURG     PTCLDY    72  70  93 CALM      30.07F
SUMTER SHAW    CLEAR     74  72  92 W2        30.05F
$$

SCZ034-044-045-048-050-020900-
COAST

CITY           SKY/WX    TMP DP  RH WIND       PRES   REMARKS
CHARLESTON APT PTCLDY    76  74  93 CALM      30.06S
BEAUFORT       PTCLDY    76  75  97 CALM      30.06S
$$




USA.gov is the U.S. government's official web portal to all federal, state and local government web resources and services.